User: anonymous   Login
Location: Franzen
(48.6167°N, 15.3833°E)
Time: 12:06:14
(UTC+00:00)
Language:

Cosmos 1666 Rocket - Orbit

View from above orbital plane
View from above orbital plane
View from above satellite
View from above satellite

Ground track
Ground track

The orbit data is extracted from the following two-line orbital elements,

1 15890U 85058B   21173.90757712  .00000073  00000-0  59379-5 0  9999
2 15890  82.5262 327.9643 0022275  66.4570  94.5786 14.83479246921188
Epoch (UTC): 22 June 2021 21:46:54
Eccentricity: 0.0022275
inclination: 82.5262°
perigee height: 603 km
apogee height: 634 km
right ascension of ascending node: 327.9643°
argument of perigee: 66.4570°
revolutions per day: 14.83479246
mean anomaly at epoch: 94.5786°
orbit number at epoch: 92118

The dashed part of the orbit path shows where the satellite is in the earth's shadow,  

DLR